Location: Asheville, NC
(35.6000°N, 82.5500°W)
Time: 00:58:50
(UTC-04:00)

CUBEBUG 2 - Pass Details

Date: 05 January 2018
Orbit: 586 x 699 km, 97.6° (Epoch: 23 June)

Event Time Altitude Azimuth Distance (km) Brightness Sun altitude
Rises 19:17:08 0° 175° (S) 2,796 ? -21.0°
Reaches altitude 10° 19:19:17 10° 179° (S) 1,905 ? -21.4°
Maximum altitude 19:23:22 61° 259° (W) 676 ? -22.2°
Drops below altitude 10° 19:27:34 10° 341° (NNW) 1,958 ? -23.0°
Sets 19:29:48 0° 345° (NNW) 2,882 ? -23.5°
